| time (UTC) | temp F | wind direction | speed knots | gust knots | rain 1hr in | rain 24hr in | rain mn in | humidity % | barometer mb |
| 20260509060245 | 62 | 183 | 4.3 | 12.2 | 0.00 | 0.00 | 0.00 | 81 | 1007.9 |
| 20260509055406 | 62 | 192 | 4.3 | 11.3 | 0.00 | 0.00 | 0.00 | 81 | 1007.9 |
| 20260509054445 | 63 | 188 | 3.5 | 13.0 | 0.00 | 0.00 | 0.00 | 80 | 1007.5 |
| 20260509053545 | 63 | 200 | 3.5 | 8.7 | 0.00 | 0.00 | 0.00 | 79 | 1007.7 |
| 20260509052645 | 63 | 203 | 2.6 | 8.7 | 0.00 | 0.00 | 0.00 | 77 | 1007.7 |
| 20260509051806 | 63 | 200 | 1.7 | 6.1 | 0.00 | 0.00 | 0.00 | 76 | 1007.8 |
| 20260509050845 | 63 | 208 | 0.9 | 4.3 | 0.00 | 0.00 | 0.00 | 75 | 1007.6 |
| 20260509050006 | 63 | 218 | 0.9 | 3.5 | 0.00 | 0.00 | 0.00 | 75 | 1007.4 |
| 20260509045045 | 63 | 188 | 0.9 | 2.6 | 0.00 | 0.00 | 0.00 | 74 | 1007.4 |
| 20260509044145 | 63 | 194 | 0.9 | 3.5 | 0.00 | 0.00 | 0.00 | 74 | 1007.4 |
| 20260509043245 | 63 | 198 | 0.0 | 3.5 | 0.00 | 0.00 | 0.00 | 73 | 1007.6 |
| 20260509042345 | 63 | 189 | 0.0 | 1.7 | 0.00 | 0.00 | 0.00 | 72 | 1007.7 |
| 20260509041445 | 63 | 144 | 0.0 | 1.7 | 0.00 | 0.00 | 0.00 | 72 | 1007.7 |
| 20260509040545 | 63 | 126 | 0.0 | 1.7 | 0.00 | 0.00 | 0.00 | 72 | 1007.7 |
| 20260509035645 | 63 | 119 | 0.0 | 0.9 | 0.00 | 0.00 | 0.00 | 71 | 1007.6 |
| 20260509034745 | 63 | 119 | 0.9 | 1.7 | 0.00 | 0.00 | 0.00 | 71 | 1007.6 |
| 20260509033845 | 63 | 131 | 0.9 | 4.3 | 0.00 | 0.00 | 0.00 | 71 | 1007.6 |
| 20260509032945 | 63 | 167 | 0.0 | 2.6 | 0.00 | 0.00 | 0.00 | 70 | 1007.7 |
| 20260509032045 | 63 | 169 | 0.9 | 1.7 | 0.00 | 0.00 | 0.00 | 70 | 1007.9 |
| 20260509031144 | 63 | 143 | 0.9 | 3.5 | 0.00 | 0.00 | 0.00 | 71 | 1007.7 |
| 20260509030244 | 63 | 165 | 0.9 | 4.3 | 0.00 | 0.00 | 0.00 | 71 | 1008.0 |
| 20260509025344 | 63 | 140 | 1.7 | 4.3 | 0.00 | 0.00 | 0.00 | 71 | 1008.0 |
| 20260509024444 | 63 | 156 | 0.9 | 6.1 | 0.00 | 0.00 | 0.00 | 71 | 1008.0 |
| 20260509023544 | 63 | 176 | 0.9 | 3.5 | 0.00 | 0.00 | 0.00 | 71 | 1008.1 |
| 20260509022644 | 63 | 177 | 0.9 | 4.3 | 0.00 | 0.00 | 0.00 | 71 | 1008.2 |
| 20260509021805 | 63 | 205 | 1.7 | 4.3 | 0.00 | 0.00 | 0.00 | 70 | 1008.2 |
| 20260509020844 | 63 | 183 | 1.7 | 6.1 | 0.00 | 0.00 | 0.00 | 70 | 1008.1 |
| 20260509015944 | 64 | 163 | 0.9 | 6.1 | 0.00 | 0.00 | 0.00 | 70 | 1008.1 |
| 20260509015044 | 64 | 168 | 1.7 | 4.3 | 0.00 | 0.00 | 0.00 | 70 | 1008.3 |
| 20260509014205 | 64 | 151 | 0.9 | 5.2 | 0.00 | 0.00 | 0.00 | 70 | 1008.2 |
| 20260509013244 | 64 | 169 | 0.0 | 1.7 | 0.00 | 0.00 | 0.00 | 70 | 1008.2 |
| 20260509012344 | 64 | 172 | 0.9 | 4.3 | 0.00 | 0.00 | 0.00 | 70 | 1008.4 |
| 20260509011444 | 64 | 194 | 0.9 | 2.6 | 0.00 | 0.00 | 0.00 | 70 | 1008.5 |
| 20260509010544 | 64 | 207 | 0.9 | 2.6 | 0.00 | 0.00 | 0.00 | 70 | 1008.7 |
| 20260509005644 | 64 | 166 | 0.9 | 4.3 | 0.00 | 0.00 | 0.00 | 70 | 1008.6 |
| 20260509004744 | 64 | 230 | 0.0 | 3.5 | 0.00 | 0.00 | 0.00 | 70 | 1008.7 |
| 20260509003845 | 64 | 247 | 0.9 | 3.5 | 0.00 | 0.00 | 0.00 | 71 | 1008.7 |
| 20260509002944 | 64 | 234 | 0.9 | 3.5 | 0.00 | 0.00 | 0.00 | 71 | 1008.9 |
| 20260509002044 | 64 | 198 | 0.9 | 2.6 | 0.00 | 0.00 | 0.00 | 71 | 1008.9 |
| 20260509001205 | 64 | 190 | 0.0 | 4.3 | 0.00 | 0.00 | 0.00 | 71 | 1009.1 |
| 20260509000244 | 64 | 186 | 0.0 | 2.6 | 0.00 | 0.00 | 0.00 | 71 | 1009.0 |
| 20260508235344 | 64 | 248 | 0.0 | 2.6 | 0.00 | 0.00 | 0.00 | 71 | 1009.2 |
| 20260508234444 | 64 | 268 | 0.9 | 2.6 | 0.00 | 0.00 | 0.00 | 70 | 1009.4 |
| 20260508233605 | 64 | 262 | 0.9 | 3.5 | 0.00 | 0.00 | 0.00 | 70 | 1009.6 |
| 20260508232644 | 64 | 236 | 0.9 | 3.5 | 0.00 | 0.00 | 0.00 | 70 | 1009.6 |
| 20260508231744 | 64 | 244 | 1.7 | 3.5 | 0.00 | 0.00 | 0.00 | 69 | 1009.7 |
| 20260508230844 | 64 | 234 | 0.9 | 4.3 | 0.00 | 0.00 | 0.00 | 69 | 1009.9 |
| 20260508225944 | 64 | 232 | 1.7 | 3.5 | 0.00 | 0.00 | 0.00 | 69 | 1009.8 |
| 20260508225044 | 64 | 252 | 1.7 | 3.5 | 0.00 | 0.00 | 0.00 | 68 | 1009.9 |
| 20260508224144 | 64 | 242 | 1.7 | 7.0 | 0.00 | 0.00 | 0.00 | 68 | 1009.9 |
| 20260508223244 | 64 | 232 | 1.7 | 3.5 | 0.00 | 0.00 | 0.00 | 68 | 1009.9 |
| 20260508222344 | 64 | 246 | 1.7 | 4.3 | 0.00 | 0.00 | 0.00 | 67 | 1010.0 |
| 20260508221444 | 64 | 270 | 2.6 | 7.8 | 0.00 | 0.00 | 0.00 | 67 | 1010.0 |
| 20260508220544 | 64 | 260 | 2.6 | 6.1 | 0.00 | 0.00 | 0.00 | 66 | 1009.9 |
| 20260508215644 | 64 | 264 | 2.6 | 6.1 | 0.00 | 0.00 | 0.00 | 66 | 1009.9 |
| 20260508214744 | 64 | 272 | 3.5 | 7.0 | 0.00 | 0.00 | 0.00 | 65 | 1009.9 |
| 20260508213844 | 65 | 270 | 4.3 | 8.7 | 0.00 | 0.00 | 0.00 | 65 | 1010.0 |
| 20260508212943 | 65 | 272 | 4.3 | 9.6 | 0.00 | 0.00 | 0.00 | 65 | 1010.0 |
| 20260508212044 | 65 | 273 | 3.5 | 8.7 | 0.00 | 0.00 | 0.00 | 64 | 1009.9 |
| 20260508211144 | 65 | 268 | 2.6 | 7.0 | 0.00 | 0.00 | 0.00 | 63 | 1009.7 |
| 20260508210244 | 65 | 259 | 2.6 | 6.1 | 0.00 | 0.00 | 0.00 | 63 | 1009.8 |
| 20260508205343 | 65 | 274 | 2.6 | 7.8 | 0.00 | 0.00 | 0.00 | 63 | 1009.7 |
| 20260508204443 | 65 | 260 | 3.5 | 8.7 | 0.00 | 0.00 | 0.00 | 61 | 1009.5 |
| 20260508203543 | 66 | 264 | 4.3 | 8.7 | 0.00 | 0.00 | 0.00 | 61 | 1009.5 |
| 20260508202643 | 66 | 249 | 5.2 | 9.6 | 0.00 | 0.00 | 0.00 | 60 | 1009.4 |
| 20260508201743 | 66 | 246 | 5.2 | 12.2 | 0.00 | 0.00 | 0.00 | 59 | 1009.3 |
| 20260508200843 | 66 | 245 | 6.1 | 12.2 | 0.00 | 0.00 | 0.00 | 57 | 1009.3 |
| 20260508195943 | 66 | 249 | 6.1 | 11.3 | 0.00 | 0.00 | 0.00 | 56 | 1009.1 |
| 20260508195044 | 67 | 257 | 6.1 | 11.3 | 0.00 | 0.00 | 0.00 | 55 | 1009.1 |
| 20260508194143 | 67 | 239 | 6.1 | 12.2 | 0.00 | 0.00 | 0.00 | 53 | 1009.0 |
| 20260508193243 | 68 | 243 | 6.1 | 13.0 | 0.00 | 0.00 | 0.00 | 52 | 1009.0 |
| 20260508192343 | 68 | 241 | 7.0 | 15.6 | 0.00 | 0.00 | 0.00 | 51 | 1008.8 |
| 20260508191444 | 68 | 243 | 7.0 | 13.9 | 0.00 | 0.00 | 0.00 | 52 | 1008.7 |
| 20260508190543 | 69 | 243 | 6.1 | 13.0 | 0.00 | 0.00 | 0.00 | 53 | 1008.6 |
| 20260508185643 | 70 | 243 | 6.1 | 13.0 | 0.00 | 0.00 | 0.00 | 54 | 1008.4 |
| 20260508184743 | 70 | 246 | 6.1 | 13.0 | 0.00 | 0.00 | 0.00 | 55 | 1008.4 |
| 20260508183844 | 70 | 247 | 6.1 | 11.3 | 0.00 | 0.00 | 0.00 | 54 | 1008.4 |
| 20260508182943 | 71 | 249 | 7.0 | 17.4 | 0.00 | 0.00 | 0.00 | 54 | 1008.2 |
| 20260508182104 | 71 | 243 | 6.1 | 17.4 | 0.00 | 0.00 | 0.00 | 52 | 1008.3 |
| 20260508181143 | 72 | 249 | 6.1 | 11.3 | 0.00 | 0.00 | 0.00 | 52 | 1008.1 |
| 20260508180305 | 72 | 251 | 4.3 | 11.3 | 0.00 | 0.00 | 0.00 | 52 | 1008.0 |
| 20260508175343 | 73 | 252 | 4.3 | 11.3 | 0.00 | 0.00 | 0.00 | 51 | 1008.0 |
| 20260508174443 | 73 | 266 | 4.3 | 10.4 | 0.00 | 0.00 | 0.00 | 50 | 1007.9 |
| 20260508173543 | 73 | 258 | 5.2 | 10.4 | 0.00 | 0.00 | 0.00 | 49 | 1007.8 |
| 20260508172643 | 74 | 231 | 4.3 | 8.7 | 0.00 | 0.00 | 0.00 | 49 | 1007.8 |
| 20260508171743 | 74 | 229 | 4.3 | 10.4 | 0.00 | 0.00 | 0.00 | 48 | 1007.9 |
| 20260508170843 | 74 | 253 | 4.3 | 9.6 | 0.00 | 0.00 | 0.00 | 48 | 1007.9 |
| 20260508165943 | 74 | 252 | 3.5 | 9.6 | 0.00 | 0.00 | 0.00 | 47 | 1007.9 |
| 20260508165043 | 75 | 242 | 4.3 | 9.6 | 0.00 | 0.00 | 0.00 | 47 | 1007.9 |
| 20260508164143 | 75 | 237 | 4.3 | 10.4 | 0.00 | 0.00 | 0.00 | 46 | 1008.0 |
| 20260508163243 | 75 | 237 | 3.5 | 8.7 | 0.00 | 0.00 | 0.00 | 46 | 1008.0 |
| 20260508162343 | 75 | 225 | 6.1 | 10.4 | 0.00 | 0.00 | 0.00 | 46 | 1008.1 |
| 20260508161443 | 75 | 247 | 5.2 | 13.0 | 0.00 | 0.00 | 0.00 | 46 | 1008.1 |
| 20260508160543 | 76 | 239 | 3.5 | 13.0 | 0.00 | 0.00 | 0.00 | 45 | 1008.2 |
| 20260508155643 | 75 | 229 | 3.5 | 7.8 | 0.00 | 0.00 | 0.00 | 45 | 1008.3 |
| 20260508154804 | 76 | 212 | 2.6 | 7.8 | 0.00 | 0.00 | 0.00 | 44 | 1008.1 |
| 20260508153843 | 76 | 182 | 2.6 | 7.0 | 0.00 | 0.00 | 0.00 | 44 | 1008.1 |
| 20260508152943 | 75 | 175 | 2.6 | 7.8 | 0.00 | 0.00 | 0.00 | 44 | 1008.1 |
| 20260508152043 | 75 | 245 | 1.7 | 7.8 | 0.00 | 0.00 | 0.00 | 44 | 1008.3 |
| 20260508151143 | 74 | 121 | 2.6 | 6.1 | 0.00 | 0.00 | 0.00 | 45 | 1008.4 |
| 20260508150243 | 74 | 141 | 2.6 | 7.8 | 0.00 | 0.00 | 0.00 | 45 | 1008.7 |
| 20260508145342 | 74 | 162 | 3.5 | 7.0 | 0.00 | 0.00 | 0.00 | 45 | 1008.9 |
| 20260508144443 | 74 | 209 | 2.6 | 8.7 | 0.00 | 0.00 | 0.00 | 44 | 1009.1 |
| 20260508143542 | 74 | 181 | 1.7 | 8.7 | 0.00 | 0.00 | 0.00 | 45 | 1009.2 |
| 20260508142642 | 74 | 203 | 2.6 | 7.0 | 0.00 | 0.00 | 0.00 | 46 | 1009.4 |
| 20260508141742 | 73 | 259 | 2.6 | 6.1 | 0.00 | 0.00 | 0.00 | 46 | 1009.4 |
| 20260508140842 | 73 | 222 | 3.5 | 10.4 | 0.00 | 0.00 | 0.00 | 46 | 1009.5 |
| 20260508135942 | 73 | 206 | 1.7 | 10.4 | 0.00 | 0.00 | 0.00 | 46 | 1009.7 |
| 20260508135042 | 73 | 227 | 1.7 | 6.1 | 0.00 | 0.00 | 0.00 | 47 | 1009.9 |
| 20260508134142 | 73 | 229 | 2.6 | 7.8 | 0.00 | 0.00 | 0.00 | 47 | 1010.0 |
| 20260508133242 | 72 | 223 | 2.6 | 7.8 | 0.00 | 0.00 | 0.00 | 47 | 1010.0 |
| 20260508132342 | 72 | 261 | 3.5 | 7.8 | 0.00 | 0.00 | 0.00 | 47 | 1010.2 |
| 20260508131503 | 72 | 253 | 2.6 | 10.4 | 0.00 | 0.00 | 0.00 | 46 | 1010.3 |
| 20260508130542 | 72 | 228 | 3.5 | 8.7 | 0.00 | 0.00 | 0.00 | 48 | 1010.2 |
| 20260508125703 | 72 | 214 | 3.5 | 7.8 | 0.00 | 0.00 | 0.00 | 47 | 1010.4 |
| 20260508124742 | 72 | 185 | 5.2 | 8.7 | 0.00 | 0.00 | 0.00 | 48 | 1010.6 |
| 20260508123903 | 72 | 188 | 5.2 | 9.6 | 0.00 | 0.00 | 0.00 | 47 | 1010.5 |
| 20260508123004 | 72 | 236 | 4.3 | 11.3 | 0.00 | 0.00 | 0.00 | 47 | 1010.6 |
| 20260508122042 | 72 | 253 | 3.5 | 9.6 | 0.00 | 0.00 | 0.00 | 48 | 1010.6 |
| 20260508121203 | 71 | 253 | 3.5 | 8.7 | 0.00 | 0.00 | 0.00 | 50 | 1010.8 |
| 20260508120242 | 70 | 189 | 3.5 | 7.8 | 0.00 | 0.00 | 0.00 | 51 | 1011.0 |
| 20260508115342 | 70 | 219 | 4.3 | 7.8 | 0.00 | 0.00 | 0.00 | 52 | 1011.0 |
| 20260508114442 | 70 | 220 | 3.5 | 9.6 | 0.00 | 0.00 | 0.00 | 50 | 1011.0 |
| 20260508113542 | 70 | 188 | 3.5 | 7.8 | 0.00 | 0.00 | 0.00 | 52 | 1011.1 |
| 20260508112642 | 70 | 196 | 2.6 | 8.7 | 0.00 | 0.00 | 0.00 | 51 | 1011.0 |
| 20260508111742 | 70 | 216 | 2.6 | 7.8 | 0.00 | 0.00 | 0.00 | 50 | 1011.2 |
| 20260508110842 | 69 | 237 | 3.5 | 9.6 | 0.00 | 0.00 | 0.00 | 52 | 1011.2 |
| 20260508105942 | 69 | 255 | 3.5 | 11.3 | 0.00 | 0.00 | 0.00 | 51 | 1011.2 |
| 20260508105042 | 69 | 233 | 3.5 | 7.8 | 0.00 | 0.00 | 0.00 | 51 | 1011.2 |
| 20260508104203 | 68 | 221 | 3.5 | 8.7 | 0.00 | 0.00 | 0.00 | 54 | 1011.2 |
| 20260508103242 | 68 | 192 | 2.6 | 7.8 | 0.00 | 0.00 | 0.00 | 53 | 1011.2 |
| 20260508102342 | 68 | 191 | 3.5 | 8.7 | 0.00 | 0.00 | 0.00 | 53 | 1011.3 |
| 20260508101441 | 68 | 226 | 3.5 | 10.4 | 0.00 | 0.00 | 0.00 | 56 | 1011.5 |
| 20260508100542 | 68 | 198 | 2.6 | 9.6 | 0.00 | 0.00 | 0.00 | 54 | 1011.4 |
| 20260508095642 | 67 | 217 | 2.6 | 7.0 | 0.00 | 0.00 | 0.00 | 58 | 1011.5 |
| 20260508094741 | 67 | 235 | 3.5 | 9.6 | 0.00 | 0.00 | 0.00 | 57 | 1011.5 |
| 20260508093842 | 67 | 220 | 3.5 | 7.8 | 0.00 | 0.00 | 0.00 | 59 | 1011.7 |
| 20260508093003 | 66 | 245 | 4.3 | 10.4 | 0.00 | 0.00 | 0.00 | 61 | 1011.8 |
| 20260508092042 | 66 | 238 | 3.5 | 13.0 | 0.00 | 0.00 | 0.00 | 61 | 1011.9 |
| 20260508091142 | 66 | 234 | 4.3 | 9.6 | 0.00 | 0.00 | 0.00 | 62 | 1011.7 |
| 20260508090241 | 65 | 248 | 4.3 | 11.3 | 0.00 | 0.00 | 0.00 | 64 | 1011.6 |
| 20260508085341 | 65 | 260 | 1.7 | 8.7 | 0.00 | 0.00 | 0.00 | 66 | 1011.6 |
| 20260508084441 | 65 | 220 | 1.7 | 4.3 | 0.00 | 0.00 | 0.00 | 69 | 1011.7 |
| 20260508083541 | 64 | 195 | 2.6 | 7.8 | 0.00 | 0.00 | 0.00 | 70 | 1011.7 |
| 20260508082641 | 64 | 227 | 1.7 | 7.8 | 0.00 | 0.00 | 0.00 | 71 | 1011.8 |
| 20260508081741 | 63 | 239 | 1.7 | 7.8 | 0.00 | 0.00 | 0.00 | 71 | 1011.8 |
| 20260508080841 | 63 | 225 | 1.7 | 7.8 | 0.00 | 0.00 | 0.00 | 72 | 1011.6 |
| 20260508075941 | 62 | 199 | 0.9 | 7.0 | 0.00 | 0.00 | 0.00 | 73 | 1011.6 |
| 20260508075041 | 62 | 230 | 0.9 | 6.1 | 0.00 | 0.00 | 0.00 | 73 | 1011.5 |
| 20260508074142 | 62 | 201 | 1.7 | 4.3 | 0.00 | 0.00 | 0.00 | 74 | 1011.4 |
| 20260508073302 | 61 | 199 | 1.7 | 4.3 | 0.00 | 0.00 | 0.00 | 74 | 1011.3 |
| 20260508072341 | 61 | 199 | 2.6 | 7.8 | 0.00 | 0.00 | 0.00 | 75 | 1011.2 |
| 20260508071441 | 61 | 212 | 1.7 | 7.0 | 0.00 | 0.00 | 0.00 | 75 | 1011.2 |
| 20260508070541 | 61 | 216 | 1.7 | 5.2 | 0.00 | 0.00 | 0.00 | 75 | 1011.2 |
| 20260508065641 | 60 | 210 | 0.9 | 5.2 | 0.00 | 0.00 | 0.00 | 76 | 1011.2 |
| 20260508064741 | 60 | 199 | 0.9 | 5.2 | 0.00 | 0.00 | 0.00 | 76 | 1011.1 |
| 20260508063841 | 60 | 220 | 0.9 | 4.3 | 0.00 | 0.00 | 0.00 | 77 | 1011.1 |
| 20260508062941 | 60 | 206 | 0.9 | 4.3 | 0.00 | 0.00 | 0.00 | 77 | 1011.1 |
| 20260508062041 | 60 | 189 | 0.9 | 3.5 | 0.00 | 0.00 | 0.00 | 78 | 1011.0 |
| 20260508061141 | 59 | 187 | 1.7 | 5.2 | 0.00 | 0.00 | 0.00 | 78 | 1010.9 |